Погода в Калиновском

Россия / Ставропольский край     44°51′57″N   42°58′12″E
темп.,
°C
ветер,
м/с
пор.,
м/с
влажн.,
%
обл.,
%
осадки,
мм/ч
давл.,
гПа
погр.,
м
24 июля, сб
сб2400:00+18зсз358692 0.0 1010120
03:00+17зсз238957 0.0 101148
06:00+18зсз238815 0.0 1011106
09:00+23с22594 0.0 10111028
12:00+26св325077 0.0 10111793
15:00+26св234697 0.0 10111681
18:00+26ссв234970 0.0 1012382
21:00+22с2251100 0.0 101318
25 июля, вс
вс2500:00+22ссв3647100 0.0 1013172
03:00+21ссв2348100 0.0 101353
06:00+21св2555100 0.0 1014127
09:00+21всв256994 0.0 1015209
12:00+25вюв695298 0.1 10151051
15:00+27вюв7114562 0.3 10151369
18:00+25всв365392 0.2 1015164
21:00+24в6144243 0.2 1016501
26 июля, пн
пн2600:00+22вюв411470 0.0 1016261
03:00+19в310560 0.0 1017178
06:00+19в413590 0.0 1018318
09:00+25вюв914440 0.0 10171273
12:00+29вюв912330 0.0 10161977
15:00+30вюв9113517 0.0 10152060
18:00+27в712435 0.1 1015570
21:00+22вюв3125898 0.1 1017280
27 июля, вт
вт2700:00+20вюв310605 0.0 1017231
03:00+19в4126732 0.0 1016301
06:00+19в41270100 0.0 1017405
09:00+22вюв3658100 0.1 1018559
12:00+26вюв5844100 0.0 10171700
15:00+23всв4752100 0.2 1017268
18:00+18ююв5882100 1.5 1019381
21:00+16ююв51091100 5.8 1021611
28 июля, ср
ср2800:00+15ююв41088100 0.6 1021373
03:00+15ююв61488100 0.6 1020490
06:00+16ююв311826 0.0 1020427
09:00+20ююв6105799 0.0 1019647
12:00+24юв56423 0.0 10181329
15:00+26юв35383 0.0 10172238
18:00+24ююв46494 0.0 1017350
21:00+21ююз37570 0.0 1017198